(42410) = 2000 SQ110 = 3062 T-1

Discovered at Palomar on 1971-03-26 by C. J. van Houten, I. van Houten-Groeneveld, and T. Gehrels.

Orbit

Orbit type: Main Belt

Note: WebGL enabled browser required.

epoch2024-03-31.0
epoch JD2460400.5
perihelion date2020-10-04.78235
perihelion JD2459127.28235
argument of perihelion (°)267.38679
ascending node (°)183.09512
inclination (°)2.35178
eccentricity0.1394701
perihelion distance (AU)2.1228058
Tisserand w.r.t. Jupiter3.5
ΔV w.r.t. Earth (km/sec)9.1
semimajor axis (AU)2.4668589
mean anomaly (°)323.88440
mean daily motion (°/day)0.25438260
aphelion distance (AU)2.811
period (years)3.87
P-vector [x]-0.00836540
P-vector [y]0.93298450
P-vector [z]0.35981933
Q-vector [x]-0.99996255
Q-vector [y]-0.00700776
Q-vector [z]-0.00507742
absolute magnitude16.2
phase slope0.15
uncertainty0
referenceMPEC 2024-D122
observations used793
oppositions18
arc length (days)19250
first opposition used1971
last opposition used2023
residual rms (arc-secs)0.72
perturbers coarse indicatorM-v
perturbers precise indicator003Ek
first observation date used1971-03-25.0
last observation date used2023-12-07.0
computer nameMPCLINUX
JD of orbit computation2456847.608593
perihelion JD uncertainty (days)9.6255E-05
argument of perihelion uncertainty (°)1.2287E-04
ascending node uncertainty (°)1.2031E-04
inclination uncertainty (°)6.4652E-06
eccentricity uncertainty 4.9621E-08
perihelion distance uncertainty (AU)1.2287E-07
Minimum Orbit Intersection Distances (in AU)
for orbit epoch: 2460400.5, reference: E2024-DC2
Mercury1.81634
Venus1.40471
Earth1.14134
Mars0.53621
Jupiter2.36988
Saturn6.92007
Uranus16.0179
Neptune27.4249

Observations

807 total observations over interval: 1971 03 25.33090 – 2023 12 07.100495
These data are available for download (format description).

Date (UT) J2000 RA J2000 Dec Magn Location Ref
1971 03 25.33090 12 23 47.83 -02 26 31.0   675 – Palomar Mountain MPS 16092
1971 03 26.29653 12 22 56.30 -02 19 50.6   675 – Palomar Mountain MPS 16092
1971 03 26.33611 12 22 54.20 -02 19 33.8 20.0   675 – Palomar Mountain MPS 16092
1971 03 27.33854 12 22 00.71 -02 12 38.5   675 – Palomar Mountain MPS 16092
1998 02 28.18889 11 18 36.94 +03 04 31.3   809 – European Southern Observatory, La Silla MPS 21753
1998 03 02.15424 11 16 53.73 +03 17 42.6   809 – European Southern Observatory, La Silla MPS 21753
2000 09 24.40321 01 30 00.95 +08 34 57.0 19.4   704 – Lincoln Laboratory ETS, New Mexico MPS 19956
2000 09 24.41768 01 30 00.42 +08 34 51.5 19.0   704 – Lincoln Laboratory ETS, New Mexico MPS 19956
2000 09 24.43210 01 29 59.76 +08 34 48.9 19.7   704 – Lincoln Laboratory ETS, New Mexico MPS 19956
2000 09 24.44651 01 29 59.20 +08 34 42.7 19.8   704 – Lincoln Laboratory ETS, New Mexico MPS 19956
2000 09 24.46094 01 29 58.58 +08 34 39.4 19.4   704 – Lincoln Laboratory ETS, New Mexico MPS 19956
2000 09 27.26038 01 28 02.43 +08 19 17.3 18.8   704 – Lincoln Laboratory ETS, New Mexico MPS 19956
2000 09 27.27548 01 28 01.77 +08 19 12.3 19.3   704 – Lincoln Laboratory ETS, New Mexico MPS 19956
2000 09 27.29055 01 28 01.05 +08 19 06.3 19.8   704 – Lincoln Laboratory ETS, New Mexico MPS 19956
2000 09 28.41380 01 27 11.39 +08 12 39.7 19.1 V 691 – Steward Observatory, Kitt Peak-Spacewatch MPS 19956
2000 09 28.43476 01 27 10.35 +08 12 32.7 19.4 V 691 – Steward Observatory, Kitt Peak-Spacewatch MPS 19956
2000 09 28.45578 01 27 09.37 +08 12 25.3 19.4 V 691 – Steward Observatory, Kitt Peak-Spacewatch MPS 19956
2000 10 01.25685 01 25 00.51 +07 55 43.5 19.0   704 – Lincoln Laboratory ETS, New Mexico MPS 19956
2000 10 01.27197 01 24 59.76 +07 55 38.5 19.0   704 – Lincoln Laboratory ETS, New Mexico MPS 19956
2000 10 01.28708 01 24 59.00 +07 55 32.5 19.4   704 – Lincoln Laboratory ETS, New Mexico MPS 19956
2000 10 01.31335 01 24 57.69 +07 55 22.7 19.1   704 – Lincoln Laboratory ETS, New Mexico MPS 19956
2000 10 01.32848 01 24 56.91 +07 55 18.3 19.1   704 – Lincoln Laboratory ETS, New Mexico MPS 19956
2000 10 02.37443 01 24 06.55 +07 48 52.0 19.1   704 – Lincoln Laboratory ETS, New Mexico MPS 19956
2000 10 02.40485 01 24 05.01 +07 48 40.2 19.1   704 – Lincoln Laboratory ETS, New Mexico MPS 19956
2000 10 02.41977 01 24 04.29 +07 48 33.4 19.4   704 – Lincoln Laboratory ETS, New Mexico MPS 19956
2000 10 02.43479 01 24 03.52 +07 48 29.3 19.1   704 – Lincoln Laboratory ETS, New Mexico MPS 19956
2000 10 06.29788 01 20 50.57 +07 23 53.6 18.5 R 699 – Lowell Observatory-LONEOS MPS 32531
2000 10 06.30918 01 20 49.87 +07 23 49.3 18.6 R 699 – Lowell Observatory-LONEOS MPS 19956
2000 10 06.33979 01 20 48.30 +07 23 37.5   699 – Lowell Observatory-LONEOS MPS 32531
2000 10 06.35109 01 20 47.79 +07 23 33.0   699 – Lowell Observatory-LONEOS MPS 19956
2000 10 06.38172 01 20 46.09 +07 23 20.9   699 – Lowell Observatory-LONEOS MPS 32531
2000 10 06.39301 01 20 45.53 +07 23 16.4   699 – Lowell Observatory-LONEOS MPS 19956
2000 10 06.42366 01 20 43.86 +07 23 04.7   699 – Lowell Observatory-LONEOS MPS 32531
2000 10 06.43496 01 20 43.32 +07 23 00.3   699 – Lowell Observatory-LONEOS MPS 19956
2000 11 02.21087 00 58 22.73 +04 35 14.1 18.4   704 – Lincoln Laboratory ETS, New Mexico MPS 21223
2000 11 02.22452 00 58 22.16 +04 35 09.4 19.1   704 – Lincoln Laboratory ETS, New Mexico MPS 21223
2000 11 02.25196 00 58 20.93 +04 35 01.6 20.1   704 – Lincoln Laboratory ETS, New Mexico MPS 21223
2000 11 02.26605 00 58 20.37 +04 34 56.9 20.0   704 – Lincoln Laboratory ETS, New Mexico MPS 21223
2000 11 18.20694 00 50 58.04 +03 37 53.8 19.6 R 699 – Lowell Observatory-LONEOS MPS 25791
2000 11 18.21869 00 50 57.86 +03 37 51.2   699 – Lowell Observatory-LONEOS MPS 25791
2000 11 18.23045 00 50 57.65 +03 37 51.1   699 – Lowell Observatory-LONEOS MPS 25791
2000 11 18.24223 00 50 57.38 +03 37 49.7   699 – Lowell Observatory-LONEOS MPS 25791
2002 03 06.68816 12 30 45.86 -03 36 19.0   413 – Siding Spring Observatory MPS 52843
2002 03 06.69138 12 30 45.72 -03 36 18.0   413 – Siding Spring Observatory MPS 52843
2002 03 06.69462 12 30 45.60 -03 36 16.3 19.0 R 413 – Siding Spring Observatory MPS 52843
2002 03 07.74478 12 29 59.35 -03 30 10.5   413 – Siding Spring Observatory MPS 52843
2002 03 07.74802 12 29 59.20 -03 30 09.3 18.9 R 413 – Siding Spring Observatory MPS 52843
2002 03 07.75124 12 29 59.04 -03 30 08.1   413 – Siding Spring Observatory MPS 52843
2002 03 09.40496 12 28 44.11 -03 20 19.9 19.4   704 – Lincoln Laboratory ETS, New Mexico MPS 52843
2002 03 09.42636 12 28 43.10 -03 20 12.6 19.8   704 – Lincoln Laboratory ETS, New Mexico MPS 52843
2002 03 09.44777 12 28 42.12 -03 20 04.8 19.5   704 – Lincoln Laboratory ETS, New Mexico MPS 52843
2002 03 09.46942 12 28 41.05 -03 19 57.4 19.5   704 – Lincoln Laboratory ETS, New Mexico MPS 52843
2002 03 13.33615 12 25 35.51 -02 55 38.1 18.9   704 – Lincoln Laboratory ETS, New Mexico MPS 52843
2002 03 13.35675 12 25 34.49 -02 55 29.7 19.8   704 – Lincoln Laboratory ETS, New Mexico MPS 52843
2002 03 13.37355 12 25 33.62 -02 55 23.7 19.4   704 – Lincoln Laboratory ETS, New Mexico MPS 52843
2002 03 13.38854 12 25 32.85 -02 55 19.2 19.4   704 – Lincoln Laboratory ETS, New Mexico MPS 52843
2002 03 13.40406 12 25 32.10 -02 55 11.6 19.5   704 – Lincoln Laboratory ETS, New Mexico MPS 52843
2002 03 13.51304 12 25 26.49 -02 54 28.7 19.9   644 – Palomar Mountain/NEAT MPS 52843
2002 03 13.52360 12 25 25.95 -02 54 24.7 19.7   644 – Palomar Mountain/NEAT MPS 52843
2002 03 13.53442 12 25 25.40 -02 54 20.7 19.9   644 – Palomar Mountain/NEAT MPS 52843
2002 03 15.32557 12 23 55.44 -02 42 33.6 19.1   704 – Lincoln Laboratory ETS, New Mexico MPS 52843
2002 03 15.33936 12 23 54.73 -02 42 29.9 19.6   704 – Lincoln Laboratory ETS, New Mexico MPS 52843
2002 03 15.35311 12 23 53.97 -02 42 24.2 19.8   704 – Lincoln Laboratory ETS, New Mexico MPS 52843
2002 03 15.36684 12 23 53.26 -02 42 18.5 19.5   704 – Lincoln Laboratory ETS, New Mexico MPS 52843
2002 03 15.38055 12 23 52.56 -02 42 12.9 19.3   704 – Lincoln Laboratory ETS, New Mexico MPS 52843
2002 03 16.49346 12 22 55.39 -02 34 44.1 19.9   608 – Haleakala-AMOS MPS 52843
2002 03 16.50358 12 22 54.86 -02 34 39.8 20.3   608 – Haleakala-AMOS MPS 52843
2002 03 16.51382 12 22 54.32 -02 34 35.8 20.1   608 – Haleakala-AMOS MPS 52843
2002 03 19.32413 12 20 27.70 -02 15 31.7 18.8 R 699 – Lowell Observatory-LONEOS MPS 52844
2002 03 19.33841 12 20 26.93 -02 15 26.7   699 – Lowell Observatory-LONEOS MPS 52844
2002 03 19.35254 12 20 26.17 -02 15 21.4   699 – Lowell Observatory-LONEOS MPS 52844
2002 03 19.36664 12 20 25.42 -02 15 15.6   699 – Lowell Observatory-LONEOS MPS 52844
2002 03 20.24792 12 19 39.09 -02 09 11.6 18.9 R 699 – Lowell Observatory-LONEOS MPS 52844
2002 03 20.26357 12 19 38.16 -02 09 06.2   699 – Lowell Observatory-LONEOS MPS 52844
2002 03 20.27924 12 19 37.29 -02 08 59.8   699 – Lowell Observatory-LONEOS MPS 52844
2002 03 20.29496 12 19 36.45 -02 08 51.9   699 – Lowell Observatory-LONEOS MPS 52844
2002 03 20.32813 12 19 34.62 -02 08 38.8 19.6 V 691 – Steward Observatory, Kitt Peak-Spacewatch MPS 52844
2002 03 20.34916 12 19 33.45 -02 08 30.1 19.5 V 691 – Steward Observatory, Kitt Peak-Spacewatch MPS 52844
2002 03 20.38191 12 19 31.64 -02 08 16.5 19.5 V 691 – Steward Observatory, Kitt Peak-Spacewatch MPS 52844
2002 04 08.15892 12 03 32.61 -00 03 11.5 19.7 V 691 – Steward Observatory, Kitt Peak-Spacewatch MPS 55934
2002 04 08.18107 12 03 31.58 -00 03 03.7 19.6 V 691 – Steward Observatory, Kitt Peak-Spacewatch MPS 55934
2002 04 08.20372 12 03 30.50 -00 02 55.5 19.7 V 691 – Steward Observatory, Kitt Peak-Spacewatch MPS 55934
2002 04 10.25917 12 01 59.32 +00 09 05.8 20.1   704 – Lincoln Laboratory ETS, New Mexico MPS 55934
2002 04 10.27085 12 01 58.84 +00 09 10.0 20.2   704 – Lincoln Laboratory ETS, New Mexico MPS 55934
2002 04 10.28252 12 01 58.25 +00 09 12.5 20.5   704 – Lincoln Laboratory ETS, New Mexico MPS 55934
2002 04 10.29420 12 01 57.73 +00 09 18.0 19.9   704 – Lincoln Laboratory ETS, New Mexico MPS 55934
